Wetterdaten: Sonntag, 19.09.2010
Datum Zeit Temp. A. Feuchte A. Luftdruck Regen Wind Richtung Richtung Sonnenschein UV Solar Windben
19.09.2010 00:00 7,9 C 92 % 1016,9 hPa 0,0 mm 0,0 km/h (0 Bft) S-SW 202 0 min 0 UV-I 0 W/m 3,2 km/h (1 Bft)
19.09.2010 00:10 7,9 C 91 % 1016,6 hPa 0,0 mm 0,0 km/h (0 Bft) S-SW 202 0 min 0 UV-I 0 W/m 1,6 km/h (1 Bft)
19.09.2010 00:20 7,9 C 91 % 1016,9 hPa 0,0 mm 0,0 km/h (0 Bft) N 0 0 min 0 UV-I 0 W/m 0,0 km/h (0 Bft)
19.09.2010 00:30 7,9 C 91 % 1016,8 hPa 0,0 mm 0,0 km/h (0 Bft) N 0 0 min 0 UV-I 0 W/m 0,0 km/h (0 Bft)
19.09.2010 00:40 7,8 C 91 % 1016,8 hPa 0,0 mm 0,0 km/h (0 Bft) N 0 0 min 0 UV-I 0 W/m 0,0 km/h (0 Bft)
19.09.2010 00:50 7,7 C 91 % 1016,7 hPa 0,0 mm 0,0 km/h (0 Bft) N 0 0 min 0 UV-I 0 W/m 0,0 km/h (0 Bft)
19.09.2010 01:00 7,5 C 91 % 1016,6 hPa 0,0 mm 0,0 km/h (0 Bft) N 0 0 min 0 UV-I 0 W/m 0,0 km/h (0 Bft)
19.09.2010 01:10 7,3 C 91 % 1016,7 hPa 0,0 mm 0,0 km/h (0 Bft) N 0 0 min 0 UV-I 0 W/m 0,0 km/h (0 Bft)
19.09.2010 01:20 7,2 C 91 % 1016,6 hPa 0,0 mm 0,0 km/h (0 Bft) N 0 0 min 0 UV-I 0 W/m 0,0 km/h (0 Bft)
19.09.2010 01:30 7,1 C 91 % 1016,7 hPa 0,0 mm 0,0 km/h (0 Bft) N 0 0 min 0 UV-I 0 W/m 0,0 km/h (0 Bft)
19.09.2010 01:40 6,9 C 91 % 1016,6 hPa 0,0 mm 0,0 km/h (0 Bft) N 0 0 min 0 UV-I 0 W/m 0,0 km/h (0 Bft)
19.09.2010 01:50 6,8 C 91 % 1016,6 hPa 0,0 mm 0,0 km/h (0 Bft) N 0 0 min 0 UV-I 0 W/m 0,0 km/h (0 Bft)
19.09.2010 02:00 6,7 C 91 % 1016,6 hPa 0,0 mm 0,0 km/h (0 Bft) N 0 0 min 0 UV-I 0 W/m 0,0 km/h (0 Bft)
19.09.2010 02:10 6,6 C 91 % 1016,5 hPa 0,0 mm 0,0 km/h (0 Bft) N 0 0 min 0 UV-I 0 W/m 0,0 km/h (0 Bft)
19.09.2010 02:20 6,4 C 91 % 1016,6 hPa 0,0 mm 0,0 km/h (0 Bft) N 0 0 min 0 UV-I 0 W/m 0,0 km/h (0 Bft)
19.09.2010 02:30 6,3 C 91 % 1016,6 hPa 0,0 mm 0,0 km/h (0 Bft) N 0 0 min 0 UV-I 0 W/m 0,0 km/h (0 Bft)
19.09.2010 02:40 6,2 C 91 % 1016,5 hPa 0,0 mm 0,0 km/h (0 Bft) N 0 0 min 0 UV-I 0 W/m 0,0 km/h (0 Bft)
19.09.2010 02:50 6,1 C 91 % 1016,5 hPa 0,0 mm 0,0 km/h (0 Bft) N 0 0 min 0 UV-I 0 W/m 0,0 km/h (0 Bft)
19.09.2010 03:00 5,9 C 90 % 1016,5 hPa 0,0 mm 0,0 km/h (0 Bft) N 0 0 min 0 UV-I 0 W/m 0,0 km/h (0 Bft)
19.09.2010 03:10 5,8 C 90 % 1016,7 hPa 0,0 mm 0,0 km/h (0 Bft) N 0 0 min 0 UV-I 0 W/m 0,0 km/h (0 Bft)
19.09.2010 03:20 5,7 C 90 % 1016,7 hPa 0,0 mm 0,0 km/h (0 Bft) N 0 0 min 0 UV-I 0 W/m 0,0 km/h (0 Bft)
19.09.2010 03:30 5,6 C 90 % 1016,7 hPa 0,0 mm 0,0 km/h (0 Bft) N 0 0 min 0 UV-I 0 W/m 0,0 km/h (0 Bft)
19.09.2010 03:40 5,4 C 90 % 1016,6 hPa 0,0 mm 0,0 km/h (0 Bft) N 0 0 min 0 UV-I 0 W/m 0,0 km/h (0 Bft)
19.09.2010 03:50 5,3 C 90 % 1016,6 hPa 0,0 mm 0,0 km/h (0 Bft) N 0 0 min 0 UV-I 0 W/m 0,0 km/h (0 Bft)
19.09.2010 04:00 5,2 C 90 % 1016,5 hPa 0,0 mm 0,0 km/h (0 Bft) N 0 0 min 0 UV-I 0 W/m 0,0 km/h (0 Bft)
19.09.2010 04:10 5,1 C 90 % 1016,4 hPa 0,0 mm 0,0 km/h (0 Bft) N 0 0 min 0 UV-I 0 W/m 0,0 km/h (0 Bft)
19.09.2010 04:20 5,1 C 90 % 1016,5 hPa 0,0 mm 0,0 km/h (0 Bft) N 0 0 min 0 UV-I 0 W/m 0,0 km/h (0 Bft)
19.09.2010 04:30 4,9 C 90 % 1016,6 hPa 0,0 mm 0,0 km/h (0 Bft) N 0 0 min 0 UV-I 0 W/m 0,0 km/h (0 Bft)
19.09.2010 04:40 4,9 C 91 % 1016,6 hPa 0,0 mm 0,0 km/h (0 Bft) N 0 0 min 0 UV-I 0 W/m 0,0 km/h (0 Bft)
19.09.2010 04:50 4,8 C 91 % 1016,6 hPa 0,0 mm 0,0 km/h (0 Bft) N 0 0 min 0 UV-I 0 W/m 0,0 km/h (0 Bft)
19.09.2010 05:00 4,7 C 90 % 1016,5 hPa 0,0 mm 0,0 km/h (0 Bft) N 0 0 min 0 UV-I 0 W/m 0,0 km/h (0 Bft)
19.09.2010 05:10 4,6 C 90 % 1016,5 hPa 0,0 mm 0,0 km/h (0 Bft) N 0 0 min 0 UV-I 0 W/m 0,0 km/h (0 Bft)
19.09.2010 05:20 4,6 C 90 % 1016,4 hPa 0,0 mm 0,0 km/h (0 Bft) N 0 0 min 0 UV-I 0 W/m 0,0 km/h (0 Bft)
19.09.2010 05:30 4,5 C 90 % 1016,4 hPa 0,0 mm 0,0 km/h (0 Bft) N 0 0 min 0 UV-I 0 W/m 0,0 km/h (0 Bft)
19.09.2010 05:40 4,5 C 90 % 1016,3 hPa 0,0 mm 0,0 km/h (0 Bft) N 0 0 min 0 UV-I 0 W/m 0,0 km/h (0 Bft)
19.09.2010 05:50 4,5 C 90 % 1016,2 hPa 0,0 mm 0,0 km/h (0 Bft) N 0 0 min 0 UV-I 0 W/m 0,0 km/h (0 Bft)
19.09.2010 06:00 4,5 C 90 % 1016,2 hPa 0,0 mm 0,0 km/h (0 Bft) N 0 0 min 0 UV-I 0 W/m 0,0 km/h (0 Bft)
19.09.2010 06:10 4,5 C 90 % 1016,3 hPa 0,0 mm 0,0 km/h (0 Bft) N 0 0 min 0 UV-I 0 W/m 0,0 km/h (0 Bft)
19.09.2010 06:20 4,5 C 90 % 1016,3 hPa 0,0 mm 0,0 km/h (0 Bft) N 0 0 min 0 UV-I 0 W/m 0,0 km/h (0 Bft)
19.09.2010 06:30 4,5 C 90 % 1016,3 hPa 0,0 mm 0,0 km/h (0 Bft) N 0 0 min 0 UV-I 0 W/m 0,0 km/h (0 Bft)
19.09.2010 06:40 4,5 C 90 % 1016,4 hPa 0,0 mm 0,0 km/h (0 Bft) N 0 0 min 0 UV-I 0 W/m 0,0 km/h (0 Bft)
19.09.2010 06:50 4,5 C 90 % 1016,4 hPa 0,0 mm 0,0 km/h (0 Bft) N 0 0 min 0 UV-I 0 W/m 0,0 km/h (0 Bft)
19.09.2010 07:00 4,5 C 90 % 1016,4 hPa 0,0 mm 0,0 km/h (0 Bft) N 0 0 min 0 UV-I 0 W/m 0,0 km/h (0 Bft)
19.09.2010 07:10 4,5 C 90 % 1016,5 hPa 0,0 mm 0,0 km/h (0 Bft) N 0 0 min 0 UV-I 0 W/m 0,0 km/h (0 Bft)
19.09.2010 07:20 4,5 C 90 % 1016,6 hPa 0,0 mm 0,0 km/h (0 Bft) N 0 0 min 0 UV-I 0 W/m 0,0 km/h (0 Bft)
19.09.2010 07:30 5,1 C 90 % 1016,7 hPa 0,0 mm 0,0 km/h (0 Bft) N 0 0 min 0 UV-I 0 W/m 0,0 km/h (0 Bft)
19.09.2010 07:40 5,1 C 90 % 1016,8 hPa 0,0 mm 0,0 km/h (0 Bft) N 0 0 min 0 UV-I 16 W/m 0,0 km/h (0 Bft)
19.09.2010 07:50 5,2 C 90 % 1016,8 hPa 0,0 mm 0,0 km/h (0 Bft) N 0 0 min 0 UV-I 19 W/m 0,0 km/h (0 Bft)
19.09.2010 08:10 5,1 C 88 % 1017,0 hPa 0,0 mm 0,0 km/h (0 Bft) N 0 0 min 0 UV-I 30 W/m 9,7 km/h (2 Bft)
19.09.2010 08:20 5,1 C 87 % 1017,2 hPa 0,0 mm 0,0 km/h (0 Bft) N 0 0 min 0 UV-I 33 W/m 6,4 km/h (2 Bft)
19.09.2010 08:30 6,2 C 85 % 1017,1 hPa 0,0 mm 0,0 km/h (0 Bft) N 0 0 min 0 UV-I 42 W/m 9,7 km/h (2 Bft)
19.09.2010 08:40 7,1 C 84 % 1017,1 hPa 0,0 mm 0,0 km/h (0 Bft) N 0 0 min 0 UV-I 54 W/m 8,0 km/h (2 Bft)
19.09.2010 08:50 8,2 C 83 % 1017,3 hPa 0,0 mm 0,0 km/h (0 Bft) N 0 0 min 0 UV-I 123 W/m 9,7 km/h (2 Bft)
19.09.2010 09:00 8,9 C 82 % 1017,2 hPa 0,0 mm 0,0 km/h (0 Bft) N 0 0 min 0 UV-I 105 W/m 6,4 km/h (2 Bft)
19.09.2010 09:10 9,3 C 81 % 1017,2 hPa 0,0 mm 0,0 km/h (0 Bft) N 0 0 min 0 UV-I 90 W/m 16,1 km/h (3 Bft)
19.09.2010 09:20 9,7 C 80 % 1017,3 hPa 0,0 mm 0,0 km/h (0 Bft) N 0 0 min 0 UV-I 105 W/m 12,9 km/h (3 Bft)
19.09.2010 09:30 10,1 C 80 % 1017,5 hPa 0,0 mm 0,0 km/h (0 Bft) N 0 0 min 0 UV-I 150 W/m 19,3 km/h (3 Bft)
19.09.2010 09:40 10,5 C 79 % 1017,4 hPa 0,0 mm 0,0 km/h (0 Bft) N 0 0 min 0 UV-I 199 W/m 14,5 km/h (3 Bft)
19.09.2010 09:50 10,9 C 78 % 1017,3 hPa 0,0 mm 0,0 km/h (0 Bft) N 0 10 min 0 UV-I 253 W/m 12,9 km/h (3 Bft)
19.09.2010 10:00 11,4 C 77 % 1017,4 hPa 0,0 mm 0,0 km/h (0 Bft) N 0 10 min 0 UV-I 302 W/m 14,5 km/h (3 Bft)
19.09.2010 10:10 11,9 C 76 % 1017,5 hPa 0,0 mm 0,0 km/h (0 Bft) N 0 10 min 0 UV-I 355 W/m 16,1 km/h (3 Bft)
19.09.2010 10:20 12,1 C 75 % 1017,3 hPa 0,0 mm 1,6 km/h (1 Bft) W 270 10 min 2 UV-I 403 W/m 11,3 km/h (2 Bft)
19.09.2010 10:30 12,3 C 75 % 1017,4 hPa 0,0 mm 3,2 km/h (1 Bft) W 270 10 min 2 UV-I 411 W/m 14,5 km/h (3 Bft)
19.09.2010 10:40 12,6 C 74 % 1017,4 hPa 0,0 mm 4,8 km/h (1 Bft) W-SW 247 10 min 2 UV-I 401 W/m 17,7 km/h (3 Bft)
19.09.2010 10:50 12,8 C 73 % 1017,4 hPa 0,0 mm 6,4 km/h (2 Bft) W 270 10 min 2 UV-I 432 W/m 16,1 km/h (3 Bft)
19.09.2010 11:00 13,1 C 74 % 1017,4 hPa 0,0 mm 4,8 km/h (1 Bft) W 270 10 min 3 UV-I 483 W/m 16,1 km/h (3 Bft)
19.09.2010 11:10 13,4 C 70 % 1017,3 hPa 0,0 mm 6,4 km/h (2 Bft) W 270 10 min 3 UV-I 513 W/m 16,1 km/h (3 Bft)
19.09.2010 11:20 13,5 C 69 % 1017,2 hPa 0,0 mm 6,4 km/h (2 Bft) SW 225 10 min 3 UV-I 529 W/m 19,3 km/h (3 Bft)
19.09.2010 11:30 13,8 C 69 % 1017,2 hPa 0,0 mm 8,0 km/h (2 Bft) W 270 10 min 3 UV-I 566 W/m 17,7 km/h (3 Bft)
19.09.2010 11:40 14,1 C 69 % 1017,3 hPa 0,0 mm 6,4 km/h (2 Bft) W 270 10 min 3 UV-I 432 W/m 19,3 km/h (3 Bft)
19.09.2010 11:50 13,9 C 70 % 1017,3 hPa 0,0 mm 6,4 km/h (2 Bft) W 270 10 min 3 UV-I 533 W/m 19,3 km/h (3 Bft)
19.09.2010 12:00 14,3 C 67 % 1017,2 hPa 0,0 mm 6,4 km/h (2 Bft) W 270 10 min 3 UV-I 615 W/m 20,9 km/h (4 Bft)
19.09.2010 12:10 14,3 C 65 % 1017,3 hPa 0,0 mm 8,0 km/h (2 Bft) S-SW 202 10 min 3 UV-I 469 W/m 22,5 km/h (4 Bft)
19.09.2010 12:20 14,2 C 66 % 1017,3 hPa 0,0 mm 6,4 km/h (2 Bft) W 270 10 min 3 UV-I 515 W/m 20,9 km/h (4 Bft)
19.09.2010 12:30 14,2 C 65 % 1017,2 hPa 0,0 mm 6,4 km/h (2 Bft) W-SW 247 10 min 3 UV-I 348 W/m 19,3 km/h (3 Bft)
19.09.2010 12:40 13,8 C 66 % 1017,3 hPa 0,0 mm 8,0 km/h (2 Bft) W-SW 247 0 min 2 UV-I 313 W/m 22,5 km/h (4 Bft)
19.09.2010 12:50 13,6 C 66 % 1017,3 hPa 0,0 mm 9,7 km/h (2 Bft) W-SW 247 0 min 2 UV-I 311 W/m 22,5 km/h (4 Bft)
19.09.2010 13:00 13,6 C 68 % 1017,1 hPa 0,0 mm 6,4 km/h (2 Bft) W-SW 247 0 min 2 UV-I 285 W/m 20,9 km/h (4 Bft)
19.09.2010 13:10 13,6 C 66 % 1017,1 hPa 0,0 mm 6,4 km/h (2 Bft) W 270 0 min 2 UV-I 285 W/m 20,9 km/h (4 Bft)
19.09.2010 13:20 13,3 C 67 % 1017,1 hPa 0,0 mm 3,2 km/h (1 Bft) W 270 0 min 1 UV-I 116 W/m 11,3 km/h (2 Bft)
19.09.2010 13:30 13,1 C 69 % 1017,0 hPa 0,0 mm 1,6 km/h (1 Bft) W 270 0 min 1 UV-I 104 W/m 11,3 km/h (2 Bft)
19.09.2010 13:40 13,1 C 69 % 1017,0 hPa 0,0 mm 1,6 km/h (1 Bft) W-SW 247 0 min 1 UV-I 102 W/m 9,7 km/h (2 Bft)
19.09.2010 13:50 13,1 C 71 % 1017,0 hPa 0,0 mm 1,6 km/h (1 Bft) W 270 0 min 1 UV-I 104 W/m 9,7 km/h (2 Bft)
19.09.2010 14:00 13,1 C 69 % 1017,0 hPa 0,0 mm 3,2 km/h (1 Bft) W 270 0 min 1 UV-I 107 W/m 9,7 km/h (2 Bft)
19.09.2010 14:10 13,2 C 69 % 1016,9 hPa 0,0 mm 2,2 km/h (1 Bft) SW 232 0 min 1 UV-I 90 W/m 6,4 km/h (2 Bft)
19.09.2010 14:20 13,2 C 69 % 1016,8 hPa 0,0 mm 2,8 km/h (1 Bft) W-SW 251 0 min 1 UV-I 128 W/m 9,7 km/h (2 Bft)
19.09.2010 14:30 13,4 C 69 % 1016,7 hPa 0,0 mm 2,4 km/h (1 Bft) W-SW 247 0 min 1 UV-I 162 W/m 11,3 km/h (2 Bft)
19.09.2010 14:40 13,7 C 68 % 1016,6 hPa 0,0 mm 3,6 km/h (1 Bft) S-SW 203 0 min 1 UV-I 188 W/m 11,3 km/h (2 Bft)
19.09.2010 14:50 13,8 C 68 % 1016,5 hPa 0,0 mm 1,6 km/h (1 Bft) W 270 0 min 2 UV-I 218 W/m 9,7 km/h (2 Bft)
19.09.2010 15:00 14,0 C 68 % 1016,4 hPa 0,0 mm 3,2 km/h (1 Bft) W 270 0 min 2 UV-I 257 W/m 11,3 km/h (2 Bft)
19.09.2010 15:10 14,3 C 66 % 1016,4 hPa 0,0 mm 3,2 km/h (1 Bft) W-SW 247 10 min 2 UV-I 320 W/m 11,3 km/h (2 Bft)
19.09.2010 15:20 14,9 C 64 % 1016,2 hPa 0,0 mm 3,2 km/h (1 Bft) S-SW 202 10 min 2 UV-I 448 W/m 9,7 km/h (2 Bft)
19.09.2010 15:30 15,2 C 62 % 1016,3 hPa 0,0 mm 3,2 km/h (1 Bft) SW 225 10 min 2 UV-I 431 W/m 12,9 km/h (3 Bft)
19.09.2010 15:40 15,1 C 63 % 1016,0 hPa 0,0 mm 3,2 km/h (1 Bft) W-SW 247 0 min 2 UV-I 265 W/m 11,3 km/h (2 Bft)
19.09.2010 15:50 15,3 C 64 % 1015,8 hPa 0,0 mm 3,2 km/h (1 Bft) SW 225 10 min 2 UV-I 387 W/m 9,7 km/h (2 Bft)
19.09.2010 16:00 15,8 C 61 % 1015,9 hPa 0,0 mm 6,4 km/h (2 Bft) W-SW 247 10 min 2 UV-I 555 W/m 22,5 km/h (4 Bft)
19.09.2010 16:10 15,7 C 60 % 1016,0 hPa 0,0 mm 8,0 km/h (2 Bft) W-SW 247 10 min 2 UV-I 696 W/m 24,1 km/h (4 Bft)
19.09.2010 16:20 16,3 C 59 % 1015,8 hPa 0,0 mm 6,4 km/h (2 Bft) W-SW 247 10 min 2 UV-I 596 W/m 19,3 km/h (3 Bft)
19.09.2010 16:30 16,3 C 59 % 1015,7 hPa 0,0 mm 4,8 km/h (1 Bft) W 270 10 min 2 UV-I 570 W/m 20,9 km/h (4 Bft)
19.09.2010 16:40 16,4 C 61 % 1015,7 hPa 0,0 mm 4,8 km/h (1 Bft) SW 225 0 min 1 UV-I 223 W/m 20,9 km/h (4 Bft)
19.09.2010 16:50 15,9 C 61 % 1015,6 hPa 0,0 mm 4,8 km/h (1 Bft) S-SW 202 10 min 1 UV-I 315 W/m 14,5 km/h (3 Bft)
19.09.2010 17:00 15,8 C 64 % 1015,5 hPa 0,0 mm 3,2 km/h (1 Bft) W-SW 247 10 min 1 UV-I 213 W/m 17,7 km/h (3 Bft)
19.09.2010 17:10 15,8 C 63 % 1015,1 hPa 0,0 mm 3,2 km/h (1 Bft) SW 225 0 min 1 UV-I 178 W/m 16,1 km/h (3 Bft)
19.09.2010 17:20 15,6 C 64 % 1015,1 hPa 0,0 mm 3,2 km/h (1 Bft) S-SW 202 0 min 1 UV-I 174 W/m 9,7 km/h (2 Bft)
19.09.2010 17:30 15,6 C 64 % 1015,0 hPa 0,0 mm 3,2 km/h (1 Bft) W-SW 247 10 min 1 UV-I 169 W/m 11,3 km/h (2 Bft)
19.09.2010 17:40 15,7 C 64 % 1014,9 hPa 0,0 mm 1,6 km/h (1 Bft) SW 225 0 min 1 UV-I 142 W/m 9,7 km/h (2 Bft)
19.09.2010 17:50 15,8 C 65 % 1015,0 hPa 0,0 mm 1,6 km/h (1 Bft) SW 225 0 min 1 UV-I 104 W/m 6,4 km/h (2 Bft)
19.09.2010 18:00 15,6 C 64 % 1015,2 hPa 0,0 mm 3,2 km/h (1 Bft) W-SW 247 0 min 0 UV-I 77 W/m 16,1 km/h (3 Bft)
19.09.2010 18:10 15,4 C 66 % 1015,1 hPa 0,0 mm 1,6 km/h (1 Bft) W 270 0 min 0 UV-I 49 W/m 6,4 km/h (2 Bft)
19.09.2010 18:20 15,2 C 66 % 1015,1 hPa 0,0 mm 1,6 km/h (1 Bft) W-SW 247 0 min 0 UV-I 40 W/m 6,4 km/h (2 Bft)
19.09.2010 18:30 15,1 C 67 % 1015,1 hPa 0,0 mm 1,6 km/h (1 Bft) W-SW 247 0 min 0 UV-I 35 W/m 8,0 km/h (2 Bft)
19.09.2010 18:40 15,1 C 68 % 1015,2 hPa 0,0 mm 1,6 km/h (1 Bft) S-SW 202 0 min 0 UV-I 23 W/m 4,8 km/h (1 Bft)
19.09.2010 18:50 14,9 C 67 % 1015,2 hPa 0,0 mm 1,6 km/h (1 Bft) SW 225 0 min 0 UV-I 19 W/m 6,4 km/h (2 Bft)
19.09.2010 19:00 14,8 C 68 % 1015,2 hPa 0,0 mm 0,0 km/h (0 Bft) SW 225 0 min 0 UV-I 9 W/m 4,8 km/h (1 Bft)
19.09.2010 19:10 14,6 C 68 % 1015,2 hPa 0,0 mm 1,6 km/h (1 Bft) W-SW 247 0 min 0 UV-I 0 W/m 4,8 km/h (1 Bft)
19.09.2010 19:20 14,5 C 68 % 1015,2 hPa 0,0 mm 0,0 km/h (0 Bft) SW 225 0 min 0 UV-I 0 W/m 3,2 km/h (1 Bft)
19.09.2010 19:30 14,3 C 69 % 1015,2 hPa 0,0 mm 0,0 km/h (0 Bft) SW 225 0 min 0 UV-I 0 W/m 6,4 km/h (2 Bft)
19.09.2010 19:40 14,2 C 70 % 1015,2 hPa 0,0 mm 0,0 km/h (0 Bft) SW 225 0 min 0 UV-I 0 W/m 4,8 km/h (1 Bft)
19.09.2010 19:50 14,1 C 69 % 1015,0 hPa 0,0 mm 1,6 km/h (1 Bft) S-SW 202 0 min 0 UV-I 0 W/m 6,4 km/h (2 Bft)
19.09.2010 20:00 14,1 C 69 % 1015,1 hPa 0,0 mm 0,0 km/h (0 Bft) SW 225 0 min 0 UV-I 0 W/m 6,4 km/h (2 Bft)
19.09.2010 20:10 13,9 C 69 % 1015,3 hPa 0,0 mm 0,0 km/h (0 Bft) S-SW 202 0 min 0 UV-I 0 W/m 4,8 km/h (1 Bft)
19.09.2010 20:20 13,8 C 68 % 1015,2 hPa 0,0 mm 1,6 km/h (1 Bft) SW 225 0 min 0 UV-I 0 W/m 9,7 km/h (2 Bft)
19.09.2010 20:30 13,8 C 69 % 1015,1 hPa 0,0 mm 0,0 km/h (0 Bft) SW 225 0 min 0 UV-I 0 W/m 6,4 km/h (2 Bft)
19.09.2010 20:40 13,7 C 69 % 1015,3 hPa 0,0 mm 0,0 km/h (0 Bft) SW 225 0 min 0 UV-I 0 W/m 4,8 km/h (1 Bft)
19.09.2010 20:50 13,5 C 70 % 1015,4 hPa 0,0 mm 0,0 km/h (0 Bft) SW 225 0 min 0 UV-I 0 W/m 4,8 km/h (1 Bft)
19.09.2010 21:00 13,4 C 71 % 1015,5 hPa 0,0 mm 0,0 km/h (0 Bft) SW 225 0 min 0 UV-I 0 W/m 3,2 km/h (1 Bft)
19.09.2010 21:10 13,3 C 71 % 1015,7 hPa 0,0 mm 0,0 km/h (0 Bft) SW 225 0 min 0 UV-I 0 W/m 3,2 km/h (1 Bft)
19.09.2010 21:20 13,3 C 72 % 1015,7 hPa 0,0 mm 0,0 km/h (0 Bft) SW 225 0 min 0 UV-I 0 W/m 3,2 km/h (1 Bft)
19.09.2010 21:30 13,3 C 72 % 1015,8 hPa 0,0 mm 0,0 km/h (0 Bft) SW 225 0 min 0 UV-I 0 W/m 6,4 km/h (2 Bft)
19.09.2010 21:40 13,2 C 72 % 1015,8 hPa 0,0 mm 0,0 km/h (0 Bft) SW 225 0 min 0 UV-I 0 W/m 3,2 km/h (1 Bft)
19.09.2010 21:50 13,2 C 73 % 1015,9 hPa 0,0 mm 0,0 km/h (0 Bft) S-SW 202 0 min 0 UV-I 0 W/m 4,8 km/h (1 Bft)
19.09.2010 22:00 13,1 C 73 % 1015,9 hPa 0,0 mm 0,0 km/h (0 Bft) SW 225 0 min 0 UV-I 0 W/m 4,8 km/h (1 Bft)
19.09.2010 22:10 13,1 C 74 % 1015,9 hPa 0,0 mm 0,0 km/h (0 Bft) W-SW 247 0 min 0 UV-I 0 W/m 1,6 km/h (1 Bft)
19.09.2010 22:20 13,0 C 74 % 1015,9 hPa 0,0 mm 0,0 km/h (0 Bft) SW 225 0 min 0 UV-I 0 W/m 4,8 km/h (1 Bft)
19.09.2010 22:30 13,1 C 74 % 1016,0 hPa 0,0 mm 1,6 km/h (1 Bft) W-SW 247 0 min 0 UV-I 0 W/m 8,0 km/h (2 Bft)
19.09.2010 22:40 13,1 C 74 % 1016,0 hPa 0,0 mm 1,6 km/h (1 Bft) W-SW 247 0 min 0 UV-I 0 W/m 8,0 km/h (2 Bft)
19.09.2010 22:50 13,1 C 74 % 1015,9 hPa 0,0 mm 0,0 km/h (0 Bft) SW 225 0 min 0 UV-I 0 W/m 6,4 km/h (2 Bft)
19.09.2010 23:00 13,1 C 74 % 1015,9 hPa 0,0 mm 1,6 km/h (1 Bft) S-SW 202 0 min 0 UV-I 0 W/m 6,4 km/h (2 Bft)
19.09.2010 23:10 13,1 C 75 % 1015,9 hPa 0,0 mm 1,6 km/h (1 Bft) SW 225 0 min 0 UV-I 0 W/m 8,0 km/h (2 Bft)
19.09.2010 23:20 13,1 C 75 % 1015,9 hPa 0,0 mm 1,6 km/h (1 Bft) W-SW 247 0 min 0 UV-I 0 W/m 6,4 km/h (2 Bft)
19.09.2010 23:30 13,1 C 75 % 1016,0 hPa 0,0 mm 1,6 km/h (1 Bft) SW 225 0 min 0 UV-I 0 W/m 11,3 km/h (2 Bft)
19.09.2010 23:40 13,1 C 76 % 1015,9 hPa 0,0 mm 1,6 km/h (1 Bft) SW 225 0 min 0 UV-I 0 W/m 8,0 km/h (2 Bft)
19.09.2010 23:50 13,1 C 76 % 1015,8 hPa 0,0 mm 1,6 km/h (1 Bft) SW 225 0 min 0 UV-I 0 W/m 8,0 km/h (2 Bft)
_ Min-Zeit 05:30 16:20 17:40 - 00:00 - - - - - 00:20
Minimum _ 4,4 C 59 % 1014,9 hPa - 0,0 km/h (0 Bft) - - - - - 0,0 km/h (0 Bft)
_ Max-Zeit 16:30 00:00 09:30 00:00 12:50 - - 09:50 11:00 16:10 16:10
Maximum _ 16,7 C 92 % 1017,5 hPa 0,0 mm 9,7 km/h
W-SW (2 Bft)
- - 10 min 3 UV-I 696 W/m 24,1 km/h
W-SW (4 Bft)
Durchschnitt _ 10,8 C 77 % 1016,4 hPa #0,0 mm 1,6 km/h (1 Bft) W-SW - #4:40 h 2 UV-I 255 W/m 7,5 km/h (2 Bft)